DLH4KB EDDF-LPMA

Flight info

Callsign DLH4KB
Flight time N/A
Altitude 37000
Route ANEKI2L/18 ANEKI Y163 HERBI Y164 MOPAN DCT LUTIX DCT BENOT DCT NEMOS DCT NINTU DCT MEBAK DCT REPSI DCT LERGA DCT MINSO DCT NARAK DCT AGN DCT LATEK DCT PPN DCT MIRPO DCT DGO DCT NEA DCT ARDID DCT GANSU DCT NARTA DCT RAKUN
Aircraft A20N/M-SDE2E3FGHIJ1RWXY/LB1

Departure

Time 2026-04-14 08:37
Airport Frankfurt Main Airport (EDDF)

Arrival

Time N/A
Airport Cristiano Ronaldo International Airport (LPMA)
Time Latitude Longitude Altitude Speed Heading
2026-04-14 08:18 50.04394 8.56164 354 ft 0 kts 155°
2026-04-14 08:26 50.04402 8.56158 356 ft 2 kts 154°
2026-04-14 08:27 50.04415 8.56150 358 ft 2 kts 156°
2026-04-14 08:27 50.04429 8.56140 355 ft 2 kts 158°
2026-04-14 08:27 50.04445 8.56131 356 ft 2 kts 173°
2026-04-14 08:27 50.04458 8.56139 356 ft 1 kts 249°
2026-04-14 08:28 50.04459 8.56142 353 ft 0 kts 249°
2026-04-14 08:29 50.04456 8.56131 356 ft 3 kts 249°
2026-04-14 08:30 50.04438 8.56067 354 ft 9 kts 238°
2026-04-14 08:30 50.04368 8.56042 353 ft 13 kts 163°
2026-04-14 08:30 50.04275 8.56051 350 ft 15 kts 221°
2026-04-14 08:30 50.04229 8.55895 347 ft 17 kts 249°
2026-04-14 08:31 50.04183 8.55704 350 ft 20 kts 248°
2026-04-14 08:31 50.04076 8.55256 351 ft 24 kts 250°
2026-04-14 08:31 50.04017 8.55011 348 ft 25 kts 250°
2026-04-14 08:32 50.03956 8.54752 348 ft 26 kts 249°
2026-04-14 08:32 50.03893 8.54492 355 ft 25 kts 250°
2026-04-14 08:32 50.03877 8.54422 353 ft 2 kts 249°
2026-04-14 08:32 50.03865 8.54384 354 ft 6 kts 241°
2026-04-14 08:33 50.03838 8.54319 351 ft 9 kts 235°
2026-04-14 08:33 50.03801 8.54223 353 ft 12 kts 246°
2026-04-14 08:33 50.03769 8.54092 348 ft 14 kts 250°
2026-04-14 08:33 50.03732 8.53938 350 ft 17 kts 249°
2026-04-14 08:34 50.03690 8.53759 352 ft 19 kts 250°
2026-04-14 08:34 50.03641 8.53562 352 ft 20 kts 248°
2026-04-14 08:34 50.03589 8.53348 349 ft 22 kts 250°
2026-04-14 08:34 50.03534 8.53118 353 ft 23 kts 249°
2026-04-14 08:35 50.03474 8.52875 354 ft 24 kts 247°
2026-04-14 08:35 50.03415 8.52656 349 ft 19 kts 245°
2026-04-14 08:35 50.03352 8.52595 345 ft 0 kts 176°
2026-04-14 08:35 50.03344 8.52595 345 ft 11 kts 177°
2026-04-14 08:36 50.03027 8.52598 355 ft 79 kts 180°
2026-04-14 08:36 50.02279 8.52606 347 ft 133 kts 179°
2026-04-14 08:36 50.01204 8.52624 347 ft 174 kts 179°
2026-04-14 08:36 50.00004 8.52666 926 ft 167 kts 179°
2026-04-14 08:37 49.98784 8.52736 1316 ft 185 kts 178°
2026-04-14 08:37 49.97442 8.52841 1666 ft 201 kts 177°
2026-04-14 08:37 49.95976 8.52961 1946 ft 221 kts 177°
2026-04-14 08:37 49.94421 8.53077 2368 ft 231 kts 177°
2026-04-14 08:38 49.92770 8.53192 2943 ft 240 kts 177°